Theta_e
292 288 286 288 288 286 286 284 283 285 289 288 288 288 290 292 292 292 293 294 294 295 298 297 298 298 303 313 320 325 327 331 331 330 328 327 327 327 324 322 321 319 319 317
289 285 289 291 288 287 285 284 283 286 289 289 286 288 290 291 292 293 294 293 294 293 294 295 295 296 296 302 312 319 325 328 330 331 330 330 329 329 327 325 321 321 319 317
286 288 290 290 286 286 284 284 284 285 285 285 284 284 285 288 289 290 292 292 293 293 293 293 294 295 295 295 303 313 321 326 329 331 330 329 328 326 326 324 322 321 319 317
287 288 288 286 284 286 283 287 286 285 284 280 283 278 283 285 287 289 291 290 291 294 294 294 296 296 295 296 295 308 315 322 326 329 329 327 326 324 326 327 325 322 321 318
285 286 286 285 286 287 285 287 286 285 282 281 280 280 282 283 286 288 289 292 292 294 295 295 295 296 297 299 297 297 308 316 322 327 328 327 325 326 327 327 325 322 321 321
286 289 288 288 287 288 288 285 284 282 280 277 280 281 280 282 286 286 289 289 291 291 293 294 295 296 297 298 304 303 303 309 316 323 326 327 325 324 321 323 324 322 320 320
284 285 288 289 287 288 285 283 277 276 275 276 278 278 281 286 286 286 289 290 291 292 293 293 294 294 296 297 298 306 308 310 314 318 321 325 325 324 322 320 322 319 317 317
280 279 287 289 287 286 283 283 278 272 273 276 280 278 282 286 288 291 292 291 292 292 292 292 293 294 295 296 297 298 302 306 311 314 315 317 318 318 317 318 320 320 319 320
280 280 287 287 288 290 285 282 284 277 268 274 278 281 285 287 290 290 291 291 290 291 291 292 293 293 294 295 296 297 298 298 301 305 309 311 312 312 312 312 313 313 313 311
285 280 285 287 289 288 286 288 281 279 271 270 276 278 280 286 288 289 289 289 289 290 290 290 291 292 293 293 294 296 297 296 297 299 300 302 303 305 305 305 306 306 306 306
286 284 282 286 285 284 283 282 282 282 279 274 271 277 283 285 289 289 288 289 289 289 289 290 291 291 292 293 293 293 294 294 295 296 297 298 298 299 300 300 300 301 301 300
288 284 280 283 285 286 285 284 284 280 276 276 277 278 287 287 291 290 289 290 290 290 290 290 290 291 291 291 291 291 291 292 293 294 295 295 295 296 296 296 297 297 297 297
289 283 273 280 283 284 283 284 285 282 281 277 275 281 288 288 289 290 290 290 290 289 290 290 290 290 290 290 290 290 290 290 291 292 291 291 291 292 293 293 293 294 294 294
294 285 284 279 282 284 283 283 284 284 278 281 281 282 286 287 288 289 289 289 289 289 289 289 289 289 289 289 289 289 289 289 289 290 289 289 289 289 290 290 290 290 291 291
291 283 284 286 282 283 284 284 285 283 286 282 285 282 287 290 289 290 288 287 288 288 288 288 288 288 288 288 288 288 288 288 289 289 288 287 288 288 288 287 287 287 288 288
290 283 283 281 285 284 281 284 285 287 287 286 282 283 287 292 289 288 288 288 287 287 287 287 287 287 286 287 286 286 286 286 287 287 286 286 286 286 286 286 285 286 286 287
288 286 281 281 284 284 281 284 284 286 288 288 284 289 288 287 291 289 288 288 287 287 286 286 285 285 284 285 285 284 284 285 284 284 284 284 284 284 284 284 284 284 284 284
287 287 286 283 283 276 285 289 289 287 288 289 285 287 288 290 290 288 288 288 287 285 285 284 284 283 283 283 283 283 283 283 283 282 282 282 282 282 282 282 282 283 283 283
292 288 284 281 280 282 285 282 284 285 286 289 289 285 284 285 286 284 287 288 286 285 284 284 284 283 282 282 282 282 281 281 280 280 280 281 280 279 279 278 280 281 280 282
287 287 286 282 280 278 281 281 285 289 283 289 289 285 284 287 285 284 286 286 285 284 284 283 282 281 281 280 280 279 279 278 277 277 278 279 279 275 275 277 278 279 278 279
282 283 281 282 279 281 280 282 285 281 282 280 288 287 286 288 287 286 286 283 284 283 281 280 279 278 278 278 277 276 276 274 275 275 275 275 275 274 275 276 276 276 277 278
282 282 281 280 278 278 280 284 283 283 281 281 286 285 282 283 283 283 282 281 281 280 278 277 276 276 275 274 274 273 272 273 272 271 271 270 270 272 274 273 275 276 275 276
280 284 282 282 282 283 281 282 285 284 282 282 284 283 283 282 281 281 280 280 279 279 276 274 274 274 272 271 271 269 269 270 269 266 266 267 268 270 272 273 275 277 278 277
279 281 281 282 284 284 284 282 283 283 282 283 283 282 283 281 281 280 279 278 276 275 273 273 272 271 269 268 268 266 268 267 263 262 264 266 267 268 269 271 273 275 277 279
280 281 277 277 278 279 280 281 282 281 281 280 280 281 281 281 279 279 277 275 274 272 270 270 269 268 266 266 265 263 264 262 261 262 263 264 266 265 266 269 270 272 274 277
279 279 278 279 282 283 281 281 282 280 279 278 278 277 277 279 277 275 273 272 271 269 268 267 265 264 263 262 262 261 259 258 257 260 262 263 263 264 265 266 267 273 276 278
Wind_Speed
2 3 7 7 6 3 6 5 5 2 1 2 6 8 12 8 6 9 10 10 10 12 5 6 7 7 8 9 13 15 15 16 13 11 10 9 9 8 8 8 11 12 11 12
3 4 5 6 7 6 5 4 4 0 2 3 4 10 11 8 8 8 8 9 10 6 9 7 6 6 7 10 14 15 17 16 17 12 11 9 9 8 8 8 10 11 12 11
9 4 10 7 5 7 3 7 4 3 0 2 5 8 7 6 4 5 9 5 5 9 10 8 6 5 5 8 10 13 15 16 15 16 11 6 4 3 6 8 9 11 13 14
4 2 8 5 5 6 5 6 5 5 3 4 2 7 7 5 10 6 6 3 3 5 4 4 6 5 4 5 6 9 10 12 12 13 12 14 11 9 8 7 7 9 13 13
6 9 8 5 7 8 6 7 6 3 4 1 2 1 8 3 7 7 3 5 4 5 5 6 6 6 4 5 3 4 6 7 9 12 13 13 12 10 5 6 9 10 11 13
2 1 4 7 4 5 11 8 8 5 3 3 6 6 6 5 8 1 4 3 5 5 5 5 5 5 5 7 6 3 4 4 6 10 12 16 17 10 5 6 8 7 7 8
3 1 1 4 9 6 2 7 3 3 2 7 2 2 9 7 6 3 4 4 4 4 5 6 7 8 7 9 8 6 5 3 3 5 6 10 15 13 8 5 6 6 5 5
8 5 9 4 7 11 7 8 8 9 6 3 2 9 8 1 2 3 3 4 5 6 5 6 6 5 6 8 8 7 7 6 5 4 4 2 2 2 3 4 4 6 7 7
7 7 1 2 4 11 6 7 6 9 3 4 6 7 10 2 3 4 5 5 6 6 6 6 6 6 6 8 9 8 8 8 8 6 4 4 4 4 4 4 2 2 2 2
8 3 1 2 2 1 9 11 4 2 5 5 5 6 8 5 7 6 6 6 5 5 6 7 4 6 5 6 5 9 9 9 7 7 6 5 5 5 4 3 1 3 3 2
6 4 0 4 9 12 4 4 2 5 6 7 3 9 8 10 9 12 7 7 6 5 5 4 5 5 5 6 9 9 9 9 8 7 6 6 6 5 5 4 3 3 3 2
9 5 5 10 2 1 2 8 8 7 9 2 3 9 2 5 14 11 9 7 5 5 5 6 6 5 7 8 9 9 8 9 7 6 7 8 6 6 6 5 4 3 3 2
11 6 3 4 3 1 7 6 7 6 4 9 8 11 4 6 9 6 11 8 6 5 7 6 6 6 4 7 8 8 8 8 7 8 8 8 7 7 6 5 5 4 4 4
12 3 13 18 17 8 7 7 6 6 4 11 13 6 4 7 10 8 7 5 6 6 6 5 6 6 4 5 7 7 8 6 5 7 8 8 8 7 5 5 5 5 5 4
8 9 12 20 3 6 10 13 16 13 25 14 27 9 14 18 16 15 9 8 8 7 7 6 5 5 4 5 6 6 6 5 4 6 7 6 4 3 3 4 4 4 4 4
5 8 4 5 5 9 5 9 20 27 28 17 4 12 7 11 9 12 13 12 10 9 7 6 5 5 6 5 5 5 5 5 4 6 7 3 4 4 5 6 6 5 6 6
10 10 6 20 7 3 4 26 17 17 21 23 22 29 9 5 14 16 16 13 13 10 7 7 6 5 5 5 4 6 5 5 6 6 6 8 8 8 7 6 6 6 6 4
10 16 8 8 7 13 17 11 22 20 16 20 3 8 16 14 10 8 7 15 13 11 8 6 4 5 4 3 5 4 6 7 7 8 8 9 10 9 9 8 7 6 5 6
5 15 7 7 12 6 7 7 11 14 27 18 23 7 7 12 7 3 6 7 10 10 7 6 5 3 5 6 5 6 7 7 7 8 7 7 7 8 9 9 9 9 5 7
8 4 11 5 9 12 7 3 1 6 22 11 15 17 19 16 12 7 12 13 13 10 8 7 6 6 7 7 5 5 5 6 7 8 9 8 7 6 7 7 8 5 6 9
4 3 8 7 4 7 3 3 2 12 9 4 11 20 24 15 3 20 17 12 12 11 10 7 7 7 6 5 4 5 4 7 7 7 7 7 7 8 7 8 6 7 9 9
5 4 3 3 2 6 3 2 9 4 2 2 5 6 8 13 17 20 18 14 12 11 9 8 6 6 6 7 7 7 9 9 9 10 10 10 9 8 8 10 8 8 8 10
4 6 5 6 3 3 3 3 2 2 3 3 7 11 17 18 18 17 14 13 10 9 8 6 6 5 6 8 9 8 10 11 11 10 10 10 10 9 9 9 11 10 9 8
3 2 4 3 7 6 6 3 3 1 2 4 10 16 19 20 16 15 13 11 9 7 6 5 5 5 6 6 7 6 8 9 7 9 9 9 9 11 9 8 7 8 8 9
2 6 6 4 3 1 7 5 4 7 10 13 9 11 14 17 14 13 11 10 9 8 5 5 6 6 6 7 6 5 7 6 8 7 8 8 8 9 10 9 9 10 10 12
5 7 6 7 9 5 4 11 10 12 10 10 17 10 7 8 12 11 9 7 7 7 5 5 5 5 6 6 6 6 5 3 5 7 6 6 7 7 8 9 12 16 23 24
Wind_Direction
356 135 189 173 171 127 126 127 165 229 331 200 237 267 270 280 279 262 259 258 252 252 271 215 241 234 219 215 206 206 195 200 193 190 188 189 194 183 181 190 187 184 188 186
57 231 198 126 134 122 129 133 202 32 20 190 347 285 269 260 249 235 247 243 252 293 291 286 270 239 216 218 211 211 205 197 200 199 197 201 193 198 187 187 188 187 186 187
161 200 150 136 146 139 152 154 179 161 107 58 336 295 309 299 267 281 258 269 268 266 288 304 306 285 256 230 213 213 208 202 197 200 200 190 168 130 177 189 187 191 185 185
187 133 133 114 167 130 173 196 148 141 94 230 18 280 295 293 299 272 309 335 355 5 358 4 6 358 340 294 232 214 201 199 197 191 197 198 199 197 202 192 187 189 190 190
224 158 146 162 193 159 207 128 137 94 98 64 295 23 269 333 276 261 66 46 39 26 36 30 16 7 352 358 349 214 195 189 182 186 197 207 215 221 199 181 178 186 191 195
158 349 152 174 78 133 151 87 56 62 96 295 214 168 266 206 221 88 168 354 350 359 52 41 23 11 16 12 28 63 167 185 180 187 193 204 216 213 174 177 186 184 185 197
22 240 195 130 84 28 106 105 42 0 360 228 339 180 248 244 227 225 279 329 26 53 55 44 34 22 21 25 25 37 73 80 168 178 187 203 224 223 213 171 185 167 172 198
161 234 169 192 177 167 199 154 157 191 197 237 48 234 250 184 91 105 78 84 81 67 58 52 39 32 35 29 31 39 48 55 56 95 116 122 152 178 171 182 176 192 199 211
159 244 266 179 155 146 208 217 145 103 23 59 213 283 292 175 145 112 107 85 69 60 55 50 37 42 37 47 40 39 44 48 42 42 51 75 97 129 170 180 161 163 168 170
204 131 12 179 123 26 184 148 86 10 143 231 258 261 231 197 193 149 146 131 104 74 51 46 34 45 42 55 58 60 59 60 48 49 45 50 52 55 59 67 1 313 319 325
146 121 338 129 212 175 147 185 101 118 154 171 229 254 221 198 170 165 160 144 129 117 116 89 63 42 44 56 53 54 52 53 48 45 47 48 40 49 62 59 34 336 306 291
182 133 165 204 230 260 213 181 162 153 221 262 144 261 334 197 154 151 150 142 138 127 112 81 59 40 50 57 54 49 43 53 44 46 51 55 42 37 41 35 20 325 290 261
176 202 75 4 347 279 209 200 193 98 79 199 142 255 10 110 124 149 148 149 138 122 96 86 71 56 42 62 65 56 48 47 46 54 58 47 42 40 32 20 9 353 347 331
156 142 214 216 215 125 190 190 178 155 165 212 220 223 176 176 162 163 161 150 137 124 114 105 88 73 47 51 61 55 49 32 39 57 59 54 35 30 25 14 14 11 352 340
157 205 209 238 183 189 196 189 189 195 223 208 236 205 194 190 183 182 168 153 144 136 122 110 100 91 64 51 55 55 50 38 24 54 56 47 26 25 15 25 13 357 354 335
178 222 136 257 200 197 218 208 199 208 221 226 209 238 178 177 116 159 169 163 153 144 135 124 113 94 74 59 55 60 53 49 34 53 44 20 23 13 15 12 2 4 3 3
172 195 163 241 143 92 269 219 202 216 216 210 224 234 152 165 179 176 170 167 156 150 145 129 117 102 82 58 38 45 34 37 47 38 23 18 13 10 3 347 348 351 345 331
167 204 191 232 137 222 247 191 206 210 217 219 266 150 178 187 168 129 166 155 146 139 129 125 113 89 64 51 39 37 33 37 34 25 17 11 4 355 349 347 343 333 319 320
276 190 200 204 206 276 248 210 165 175 239 209 217 126 121 121 84 42 144 140 136 132 126 121 112 96 74 47 25 43 38 40 26 12 360 354 349 338 337 335 328 320 307 315
224 294 204 164 217 209 282 181 182 99 259 182 175 165 150 148 173 191 162 132 123 119 121 118 100 77 56 28 18 53 47 44 18 354 338 333 325 310 305 298 297 280 286 284
166 191 212 195 209 283 242 153 163 161 253 314 191 168 164 176 219 129 128 120 120 119 110 100 86 74 49 26 19 60 68 26 351 336 329 331 325 314 297 300 296 295 299 296
165 181 189 160 169 247 175 83 160 221 325 270 105 141 114 107 114 119 122 123 121 117 101 80 89 82 57 30 33 35 29 357 353 348 340 332 327 325 322 316 312 311 305 305
232 190 179 200 216 256 247 227 309 182 170 180 119 123 128 128 125 125 124 121 120 118 106 91 94 92 59 31 34 22 0 356 351 344 333 325 322 321 320 316 315 313 313 306
262 195 150 133 213 213 239 201 194 259 136 123 125 131 136 129 126 120 120 124 118 105 86 65 77 72 51 34 26 14 354 352 342 327 321 320 322 319 320 311 301 298 299 295
212 137 152 275 279 273 250 234 158 112 119 115 96 117 129 126 127 129 124 120 121 115 93 68 49 38 21 7 1 348 343 343 335 318 311 311 314 315 312 302 302 296 284 281
195 173 177 217 190 182 191 167 158 145 135 126 122 104 69 114 117 118 108 108 112 106 88 70 47 29 3 345 330 322 324 321 309 311 312 308 304 306 304 305 304 291 291 293